Weather History for Lawton, OK

Change the Weather History Date:

Thursday, February 21, 2013

  Actual Average Record
Temperature  
Mean Temperature 39 °F -  
Max Temperature 48 °F 61 °F 82 °F (1982)
Min Temperature 28 °F 34 °F 15 °F (1978)
Degree Days  
Heating Degree Days 26    
Moisture  
Dew Point 33 °F    
Average Humidity 82    
Maximum Humidity 100    
Minimum Humidity 63    
Precipitation  
Precipitation 0.02 in - - ()
Sea Level Pressure  
Sea Level Pressure 29.75 in    
Wind  
Wind Speed 12 mph (NNW)    
Max Wind Speed 21 mph    
Max Gust Speed 24 mph    
Visibility 9 miles    
Events Rain , Thunderstorm    
Averages and records for this station are not official NWS values.
T = Trace of Precipitation, MM = Missing Value Source: NWS Daily Summary

Daily Weather History Graph

Daily Weather History Graph

Search for Another Location

Airport:

Trip Planner

Search our weather history database for the weather conditions in past years. The results will help you decide how hot, cold, wet, or windy it might be!

Date:

Astronomy

Feb. 21, 2013 Rise Set
Actual Time 7:12 AM CST 6:22 PM CST
Civil Twilight 6:46 AM CST 6:48 PM CST
Nautical Twilight 6:17 AM CST 7:17 PM CST
Astronomical Twilight 5:48 AM CST 7:46 PM CST
Moon 2:45 PM CST (2/21) 4:11 AM CST (2/21)
Length of Visible Light 12h 01m
Length of Day
11h 10m
Waxing Gibbous, 84% of the Moon is Illuminated
Feb 21
Waxing Gibbous
Feb 25
Full
Mar 4
Last Quarter
Mar 11
New
Mar 19
First Quarter

Hourly Weather History & Observations

Time (CST) Temp. Windchill Dew Point Humidity Pressure Visibility Wind Dir Wind Speed Gust Speed Precip Events Conditions
12:41 AM 37.4 °F 27.5 °F 32.0 °F 81% 29.75 in 10.0 mi ESE 18.4 mph - N/A   Overcast
12:53 AM 36.0 °F 26.0 °F 32.0 °F 86% 29.75 in 10.0 mi East 17.3 mph - N/A   Overcast
1:53 AM 36.0 °F 26.3 °F 32.0 °F 86% 29.73 in 10.0 mi ESE 16.1 mph - 0.01 in   Overcast
2:53 AM 36.0 °F 25.0 °F 33.1 °F 89% 29.68 in 10.0 mi ESE 20.7 mph 24.2 mph N/A   Overcast
3:53 AM 37.0 °F 32.4 °F 33.1 °F 86% 29.72 in 10.0 mi NW 5.8 mph - N/A   Overcast
4:02 AM 37.4 °F 32.1 °F 33.8 °F 87% 29.71 in 10.0 mi NW 6.9 mph - N/A Thunderstorm Overcast
4:21 AM 35.6 °F 30.7 °F 33.8 °F 93% 29.73 in 2.0 mi NNW 5.8 mph - 0.19 in Rain , Thunderstorm Heavy Thunderstorms and Rain
4:28 AM 35.6 °F 28.0 °F 33.8 °F 93% 29.68 in 3.0 mi North 10.4 mph - 0.20 in Rain , Thunderstorm Thunderstorms and Rain
4:43 AM 33.8 °F 27.7 °F 33.8 °F 100% 29.72 in 2.5 mi Variable 6.9 mph - 0.27 in Rain , Thunderstorm Thunderstorms and Rain
5:05 AM 33.8 °F 28.6 °F 33.8 °F 100% 29.73 in 4.0 mi North 5.8 mph - 0.01 in Rain , Thunderstorm Light Rain
5:29 AM 33.8 °F 27.0 °F 32.0 °F 93% 29.74 in 6.0 mi North 8.1 mph - 0.05 in Rain Rain
5:39 AM 33.8 °F 26.4 °F 32.0 °F 93% 29.75 in 6.0 mi North 9.2 mph - 0.06 in Rain , Thunderstorm Light Rain
5:48 AM 33.8 °F 24.8 °F 32.0 °F 93% 29.73 in 10.0 mi NNE 12.7 mph - 0.06 in   Overcast
6:24 AM 33.8 °F 25.3 °F 32.0 °F 93% 29.73 in 10.0 mi NNE 11.5 mph - 0.01 in   Overcast
6:53 AM 34.0 °F 25.5 °F 32.0 °F 92% 29.73 in 10.0 mi NE 11.5 mph - 0.01 in   Overcast
7:53 AM 34.0 °F 25.5 °F 32.0 °F 92% 29.71 in 10.0 mi NE 11.5 mph - N/A   Overcast
8:33 AM 35.6 °F 26.2 °F 33.8 °F 93% 29.68 in 10.0 mi ENE 15.0 mph - N/A   Mostly Cloudy
8:53 AM 36.0 °F 28.0 °F 33.1 °F 89% 29.71 in 10.0 mi ENE 11.5 mph - N/A   Mostly Cloudy
9:53 AM 39.0 °F 34.0 °F 36.0 °F 89% 29.72 in 10.0 mi East 6.9 mph - N/A   Overcast
10:25 AM 39.2 °F 34.2 °F 35.6 °F 87% 29.70 in 10.0 mi SSE 6.9 mph - N/A   Overcast
10:44 AM 41.0 °F 36.4 °F 35.6 °F 81% 29.70 in 10.0 mi SSE 6.9 mph - N/A   Overcast
10:53 AM 41.0 °F 35.8 °F 37.0 °F 86% 29.71 in 10.0 mi SSE 8.1 mph - N/A   Overcast
11:00 AM 41.0 °F 34.7 °F 37.4 °F 87% 29.69 in 10.0 mi South 10.4 mph - N/A   Overcast
11:53 AM 42.1 °F 34.9 °F 37.0 °F 82% 29.72 in 10.0 mi SSW 13.8 mph 19.6 mph N/A   Overcast
12:11 PM 42.8 °F 35.8 °F 37.4 °F 81% 29.70 in 10.0 mi SSW 13.8 mph - N/A   Overcast
12:51 PM 42.8 °F 35.1 °F 35.6 °F 76% 29.70 in 10.0 mi SW 16.1 mph 20.7 mph N/A   Overcast
12:53 PM 42.1 °F 35.7 °F 36.0 °F 79% 29.71 in 10.0 mi SW 11.5 mph 20.7 mph N/A   Overcast
1:03 PM 44.6 °F 38.8 °F 37.4 °F 76% 29.70 in 10.0 mi WSW 11.5 mph - N/A   Overcast
1:10 PM 42.8 °F 36.6 °F 35.6 °F 76% 29.70 in 10.0 mi WSW 11.5 mph 18.4 mph N/A   Overcast
1:53 PM 46.0 °F 40.2 °F 37.0 °F 71% 29.69 in 10.0 mi West 12.7 mph - N/A   Mostly Cloudy
2:05 PM 46.4 °F 41.5 °F 37.4 °F 71% 29.68 in 10.0 mi West 10.4 mph - N/A   Scattered Clouds
2:53 PM 48.0 °F - 36.0 °F 63% 29.71 in 10.0 mi West 6.9 mph - N/A   Mostly Cloudy
3:53 PM 48.0 °F - 37.0 °F 66% 29.72 in 10.0 mi WNW 8.1 mph - N/A   Overcast
4:53 PM 46.9 °F - 35.1 °F 63% 29.76 in 10.0 mi NW 12.7 mph 18.4 mph N/A   Overcast
5:53 PM 45.0 °F 38.9 °F 34.0 °F 65% 29.82 in 10.0 mi WNW 12.7 mph 20.7 mph N/A   Overcast
6:53 PM 42.1 °F 35.2 °F 32.0 °F 67% 29.84 in 10.0 mi NW 12.7 mph 23.0 mph N/A   Clear
7:53 PM 34.0 °F 24.6 °F 26.1 °F 73% 29.92 in 10.0 mi NNW 13.8 mph 20.7 mph N/A   Scattered Clouds
8:53 PM 30.9 °F 24.3 °F 23.0 °F 72% 29.96 in 10.0 mi NNW 6.9 mph - N/A   Clear
9:53 PM 30.0 °F 20.5 °F 19.0 °F 64% 30.01 in 10.0 mi NW 11.5 mph - N/A   Clear
10:53 PM 28.0 °F 18.6 °F 18.0 °F 66% 30.04 in 10.0 mi North 10.4 mph - N/A   Clear